When you browse on this site, cookies collect data to enhance your experience and personalize the content and advertising you see.
Visit our Privacy Policy to learn more. By continuing to use the site, you agree to this use of cookies and data.
  • In Italy
  • List of Countries
  • For 7 days
  • Water Temperature
  • Satellite Maps
  • Weather Map
  • Weather Widgets
  • user-avatar
    Login

    Hourly Weather Pinsk

    Today, 25 May, Saturday

    Time Temperature Precipitation Wind Pressure Humidity
    00:00 +15°C° 0 mm 2 mps 744 mmHg 94%
    01:00 +15°C° 0 mm 2 mps 744 mmHg 94%
    02:00 +14°C° 0 mm 2 mps 744 mmHg 95%
    03:00 +14°C° 0 mm 2 mps 744 mmHg 95%
    04:00 +14°C° 0 mm 2 mps 744 mmHg 95%
    05:00 +13°C° 0 mm 2 mps 744 mmHg 95%
    06:00 +15°C° 0 mm 2 mps 744 mmHg 92%
    07:00 +16°C° 0 mm 2 mps 744 mmHg 88%
    08:00 +18°C° 0 mm 3 mps 744 mmHg 85%
    09:00 +19°C° 0 mm 3 mps 744 mmHg 79%
    10:00 +20°C° 0 mm 3 mps 744 mmHg 73%
    11:00 +22°C° 0 mm 4 mps 744 mmHg 68%
    12:00 +22°C° 0.6 mm 4 mps 744 mmHg 67%
    13:00 +22°C° 0.6 mm 4 mps 744 mmHg 67%
    14:00 +22°C° 0.6 mm 3 mps 744 mmHg 67%
    15:00 +22°C° 0.6 mm 4 mps 744 mmHg 69%
    16:00 +21°C° 0.6 mm 4 mps 744 mmHg 71%
    17:00 +21°C° 0.6 mm 4 mps 744 mmHg 73%
    18:00 +20°C° 0.2 mm 3 mps 744 mmHg 77%
    19:00 +18°C° 0.2 mm 3 mps 744 mmHg 81%
    20:00 +17°C° 0.2 mm 2 mps 744 mmHg 85%
    21:00 +16°C° 0 mm 2 mps 744 mmHg 86%
    22:00 +15°C° 0 mm 2 mps 744 mmHg 88%
    23:00 +14°C° 0 mm 2 mps 745 mmHg 90%

    Tomorrow, 26 May, Sunday

    Time Temperature Precipitation Wind Pressure Humidity
    00:00 +14°C° 0 mm 2 mps 745 mmHg 92%
    01:00 +13°C° 0 mm 2 mps 745 mmHg 94%
    02:00 +12°C° 0 mm 3 mps 745 mmHg 96%
    03:00 +12°C° 0 mm 2 mps 745 mmHg 95%
    04:00 +12°C° 0 mm 2 mps 746 mmHg 95%
    05:00 +11°C° 0 mm 1 mps 746 mmHg 94%
    06:00 +13°C° 0 mm 2 mps 746 mmHg 89%
    07:00 +14°C° 0 mm 2 mps 746 mmHg 83%
    08:00 +16°C° 0 mm 2 mps 746 mmHg 78%
    09:00 +17°C° 0 mm 3 mps 746 mmHg 74%
    10:00 +18°C° 0 mm 4 mps 746 mmHg 69%
    11:00 +19°C° 0 mm 5 mps 746 mmHg 65%
    12:00 +20°C° 0 mm 5 mps 746 mmHg 63%
    13:00 +20°C° 0 mm 5 mps 746 mmHg 61%
    14:00 +21°C° 0 mm 6 mps 746 mmHg 59%
    15:00 +21°C° 0 mm 5 mps 746 mmHg 60%
    16:00 +21°C° 0 mm 5 mps 745 mmHg 62%
    17:00 +21°C° 0 mm 4 mps 745 mmHg 63%
    18:00 +19°C° 0 mm 4 mps 745 mmHg 69%
    19:00 +18°C° 0 mm 3 mps 745 mmHg 76%
    20:00 +16°C° 0 mm 2 mps 745 mmHg 82%
    21:00 +16°C° 0 mm 2 mps 746 mmHg 84%
    22:00 +15°C° 0 mm 2 mps 746 mmHg 86%
    23:00 +13°C° 0 mm 3 mps 746 mmHg 89%

    Day after tomorrow, 27 May, Monday

    Time Temperature Precipitation Wind Pressure Humidity
    00:00 +14°C° 0 mm 2 mps 746 mmHg 89%
    01:00 +13°C° 0 mm 2 mps 746 mmHg 90%
    02:00 +13°C° 0 mm 2 mps 746 mmHg 91%
    03:00 +13°C° 0 mm 2 mps 746 mmHg 91%
    04:00 +13°C° 0 mm 2 mps 746 mmHg 91%
    05:00 +13°C° 0 mm 2 mps 746 mmHg 92%
    06:00 +14°C° 0 mm 3 mps 747 mmHg 86%
    07:00 +17°C° 0 mm 3 mps 747 mmHg 80%
    08:00 +18°C° 0 mm 3 mps 747 mmHg 75%
    09:00 +20°C° 0 mm 3 mps 747 mmHg 69%
    10:00 +21°C° 0 mm 4 mps 747 mmHg 64%
    11:00 +23°C° 0 mm 4 mps 747 mmHg 59%
    12:00 +23°C° 0.1 mm 4 mps 747 mmHg 59%
    13:00 +25°C° 0.1 mm 5 mps 746 mmHg 59%
    14:00 +25°C° 0.1 mm 5 mps 746 mmHg 59%
    15:00 +25°C° 0.2 mm 5 mps 746 mmHg 63%
    16:00 +25°C° 0.2 mm 4 mps 746 mmHg 66%
    17:00 +25°C° 0.2 mm 4 mps 746 mmHg 70%
    18:00 +22°C° 0.3 mm 4 mps 746 mmHg 76%
    19:00 +21°C° 0.3 mm 3 mps 746 mmHg 82%
    20:00 +19°C° 0.3 mm 3 mps 746 mmHg 88%
    21:00 +19°C° 0 mm 3 mps 746 mmHg 90%
    22:00 +18°C° 0 mm 2 mps 746 mmHg 91%
    23:00 +18°C° 0 mm 2 mps 746 mmHg 93%

    28 May, Tuesday

    Time Temperature Precipitation Wind Pressure Humidity
    00:00 +17°C° 0 mm 2 mps 746 mmHg 92%
    01:00 +18°C° 0 mm 1 mps 746 mmHg 92%
    02:00 +18°C° 0 mm 1 mps 746 mmHg 92%
    03:00 +18°C° 0 mm 1 mps 746 mmHg 92%
    04:00 +17°C° 0 mm 2 mps 745 mmHg 92%
    05:00 +17°C° 0 mm 2 mps 745 mmHg 93%
    06:00 +18°C° 0.1 mm 2 mps 745 mmHg 90%
    07:00 +19°C° 0.1 mm 2 mps 745 mmHg 88%
    08:00 +20°C° 0.1 mm 2 mps 745 mmHg 85%
    09:00 +21°C° 0.5 mm 2 mps 745 mmHg 84%
    10:00 +23°C° 0.5 mm 2 mps 744 mmHg 84%
    11:00 +23°C° 0.5 mm 2 mps 744 mmHg 83%
    12:00 +24°C° 0.6 mm 3 mps 744 mmHg 79%
    13:00 +26°C° 0.6 mm 4 mps 744 mmHg 75%
    14:00 +27°C° 0.6 mm 5 mps 743 mmHg 72%
    15:00 +27°C° 0.8 mm 5 mps 743 mmHg 73%
    16:00 +27°C° 0.8 mm 5 mps 743 mmHg 74%
    17:00 +26°C° 0.8 mm 5 mps 743 mmHg 75%
    18:00 +25°C° 0.5 mm 4 mps 743 mmHg 78%
    19:00 +23°C° 0.5 mm 4 mps 743 mmHg 82%
    20:00 +21°C° 0.5 mm 3 mps 743 mmHg 85%
    21:00 +21°C° 0.1 mm 3 mps 743 mmHg 86%
    22:00 +20°C° 0.1 mm 3 mps 743 mmHg 88%
    23:00 +19°C° 0.1 mm 3 mps 743 mmHg 89%

    29 May, Wednesday

    Time Temperature Precipitation Wind Pressure Humidity
    00:00 +19°C° 0 mm 3 mps 743 mmHg 87%
    01:00 +18°C° 0 mm 3 mps 742 mmHg 86%
    02:00 +18°C° 0 mm 3 mps 742 mmHg 85%
    03:00 +18°C° 0.1 mm 3 mps 742 mmHg 86%
    04:00 +17°C° 0.1 mm 3 mps 742 mmHg 88%
    05:00 +16°C° 0.1 mm 3 mps 742 mmHg 89%
    06:00 +18°C° 0.2 mm 3 mps 742 mmHg 88%
    07:00 +19°C° 0.2 mm 3 mps 742 mmHg 87%
    08:00 +20°C° 0.2 mm 3 mps 743 mmHg 86%
    09:00 +22°C° 0.2 mm 3 mps 743 mmHg 80%
    10:00 +24°C° 0.2 mm 3 mps 743 mmHg 75%
    11:00 +26°C° 0.2 mm 2 mps 743 mmHg 69%
    12:00 +26°C° 1.6 mm 3 mps 743 mmHg 67%
    13:00 +27°C° 1.6 mm 3 mps 743 mmHg 65%
    14:00 +27°C° 1.6 mm 3 mps 743 mmHg 63%
    15:00 +26°C° 1.9 mm 3 mps 744 mmHg 68%
    16:00 +25°C° 1.9 mm 3 mps 744 mmHg 74%
    17:00 +24°C° 1.9 mm 2 mps 744 mmHg 80%
    18:00 +22°C° 0.1 mm 3 mps 744 mmHg 84%
    19:00 +21°C° 0.1 mm 3 mps 745 mmHg 87%
    20:00 +20°C° 0.1 mm 3 mps 745 mmHg 91%
    21:00 +18°C° 0 mm 4 mps 745 mmHg 92%
    22:00 +17°C° 0 mm 4 mps 746 mmHg 93%
    23:00 +15°C° 0 mm 5 mps 746 mmHg 94%

    30 May, Thursday

    Time Temperature Precipitation Wind Pressure Humidity
    00:00 +15°C° 0 mm 5 mps 747 mmHg 94%
    01:00 +14°C° 0 mm 5 mps 747 mmHg 93%
    02:00 +13°C° 0 mm 5 mps 748 mmHg 92%
    03:00 +13°C° 0 mm 5 mps 748 mmHg 92%
    04:00 +13°C° 0 mm 5 mps 749 mmHg 91%
    05:00 +12°C° 0 mm 5 mps 749 mmHg 91%
    06:00 +13°C° 0 mm 4 mps 750 mmHg 90%
    07:00 +13°C° 0 mm 4 mps 750 mmHg 88%
    08:00 +13°C° 0 mm 4 mps 751 mmHg 87%
    09:00 +15°C° 0 mm 4 mps 751 mmHg 82%
    10:00 +17°C° 0 mm 4 mps 751 mmHg 77%
    11:00 +18°C° 0 mm 3 mps 751 mmHg 72%
    12:00 +19°C° 0 mm 3 mps 751 mmHg 71%
    13:00 +19°C° 0 mm 3 mps 751 mmHg 70%
    14:00 +20°C° 0 mm 3 mps 751 mmHg 69%
    15:00 +20°C° 0 mm 3 mps 751 mmHg 71%
    16:00 +20°C° 0 mm 2 mps 751 mmHg 73%
    17:00 +19°C° 0 mm 2 mps 751 mmHg 75%
    18:00 +19°C° 0 mm 2 mps 751 mmHg 77%
    19:00 +18°C° 0 mm 2 mps 751 mmHg 80%
    20:00 +18°C° 0 mm 1 mps 751 mmHg 82%
    21:00 +18°C° 0 mm 1 mps 751 mmHg 82%
    22:00 +18°C° 0 mm 1 mps 751 mmHg 82%
    23:00 +16°C° 0 mm 1 mps 751 mmHg 82%
    Show more